x

Rochester, Ny (rprn6) Weather Station

8:00am - Tue 21st Apr 2015 All times are CDT. -5 hours from GMT.

  • Wind
    18mph, 25mph gusts
  • Air Temp 45°f
  • Sea Pressure 1004.1mb
  • Rochester, Ny
  • Rochester, Ny

More Historic Weather Station data

Upgrade to MSW Pro to gain access to the past 30 days of data for over 8000 Wavebouys and Weather Stations around the globe.

Join Pro

Comparision Forecast

View Surf forecast
   
Tue 04/21 8:00am 18 25 mph 1004.1mb 45f
7:50am 18 23 mph 1004.1mb 45f
7:40am 17 26 mph 1003.7mb 45f
7:30am 23 29 mph 1003.7mb 46f
7:20am 16 22 mph 1003.7mb 48f
7:10am 13 20 mph 1003.4mb 48f
7:00am 15 20 mph 1003.4mb 48f
6:50am 14 21 mph 1003mb 48f
6:40am 14 18 mph 1003mb 48f
6:30am 11 16 mph 1003mb 48f
6:20am 14 22 mph 1003mb 48f
6:10am 15 18 mph 1003mb 48f
6:00am 13 18 mph 1003mb 48f
5:50am 11 21 mph 1002.4mb 48f
5:40am 13 18 mph 1002.7mb 48f
5:30am 13 18 mph 1002.7mb 48f
5:20am 9 14 mph 1002.7mb 48f
5:10am 10 14 mph 1002.7mb 48f
5:00am 8 20 mph 1002.4mb 48f
4:50am 10 16 mph 1002.4mb 48f
4:40am 10 22 mph 1002.4mb 48f
4:30am 13 18 mph 1002.4mb 48f
4:20am 14 20 mph 1002.4mb 49f
4:10am 14 21 mph 1002mb 49f
4:00am 14 20 mph 1002mb 49f
3:50am 13 18 mph 1002mb 49f
3:40am 14 18 mph 1002mb 49f
3:30am 13 22 mph 1002mb 49f
3:20am 14 21 mph 1002mb 50f
3:10am 18 24 mph 1001.7mb 50f
3:00am 14 20 mph 1002mb 50f
2:50am 16 22 mph 1002mb 51f
2:40am 11 17 mph 1002mb 51f
2:30am 13 18 mph 1001.7mb 51f
2:20am 14 21 mph 1002mb 51f
2:10am 16 21 mph 1001.7mb 51f
2:00am 14 22 mph 1002mb 51f
1:50am 15 21 mph 1002mb 52f
1:40am 13 18 mph 1002mb 52f
1:30am 11 17 mph 1002mb 51f
1:20am 13 17 mph 1001.7mb 51f
1:10am 11 16 mph 1002mb 52f
1:00am 10 23 mph 1002mb 52f
12:50am 16 21 mph 1002mb 53f
12:40am 11 17 mph 1002mb 53f
12:30am 13 20 mph 1002mb 53f
12:20am 15 21 mph 1002mb 53f
12:10am 16 25 mph 1002mb 54f
12:00am 13 22 mph 1002mb 54f
Mon 04/20 11:50pm 11 23 mph 1001.7mb 54f
11:40pm 15 22 mph 1001.7mb 55f
11:30pm 13 21 mph 1001.7mb 55f
11:20pm 15 22 mph 1001.7mb 55f
11:10pm 13 20 mph 1001.4mb 55f
11:00pm 11 16 mph 1001.4mb 55f
10:50pm 13 16 mph 1001mb 55f
10:40pm 11 16 mph 1001mb 56f
10:30pm 13 14 mph 1001mb 56f
10:20pm 11 16 mph 1001mb 56f
10:10pm 11 17 mph 1001mb 56f
10:00pm 10 14 mph 1001mb 56f
9:50pm 11 16 mph 1000.7mb 56f
9:40pm 13 20 mph 1001mb 56f
9:30pm 11 17 mph 1000.7mb 56f
9:20pm 14 17 mph 1000.3mb 56f
9:10pm 14 17 mph 1000.3mb 56f
9:00pm 10 17 mph 1000.3mb 56f
8:50pm 13 17 mph 1000.3mb 56f
8:40pm 11 17 mph 1000.7mb 56f
8:30pm 10 15 mph 1001mb 56f
8:20pm 11 17 mph 1000.7mb 56f
8:10pm 15 21 mph 1000.3mb 57f
8:00pm 13 20 mph 1000.3mb 57f
7:50pm 17 23 mph 999.7mb 59f
7:40pm 13 24 mph 1000mb 59f
7:30pm 16 24 mph 1000mb 60f
7:20pm 10 16 mph 1000mb 60f
7:10pm 8 13 mph 999.3mb 60f
7:00pm 10 13 mph 999.7mb 59f
6:50pm 8 10 mph 999mb 59f
6:40pm 9 14 mph 999.3mb 57f
6:30pm 14 17 mph 998.6mb 55f
6:20pm 16 18 mph 999mb 49f
6:10pm 9 10 mph 998.3mb 55f
6:00pm 8 11 mph 998mb 63f
5:50pm 6 10 mph 998.3mb 62f
5:40pm 8 13 mph 998.3mb 58f
5:30pm 11 14 mph 998mb 56f
5:20pm 10 14 mph 998.3mb 56f
5:10pm 8 15 mph 998.3mb 58f
4:00pm 21 30 mph 996.3mb 64f
3:50pm 24 31 mph 996.3mb 64f
3:40pm 22 26 mph 996.3mb 64f
3:30pm 23 33 mph 996.6mb 65f
3:20pm 24 34 mph 996.6mb 64f
3:10pm 28 31 mph 996.3mb 64f
3:00pm 24 29 mph 996.6mb 65f
2:50pm 22 30 mph 997mb 65f
2:40pm 21 26 mph 997.3mb 64f
2:30pm 21 25 mph 997.3mb 64f
2:20pm 21 25 mph 997.6mb 64f
2:10pm 23 28 mph 997.6mb 64f
2:00pm 22 26 mph 998mb 64f
1:50pm 16 22 mph 998.3mb 65f
1:40pm 21 24 mph 998.3mb 66f
1:30pm 16 26 mph 998.3mb 66f
1:20pm 18 28 mph 998.6mb 65f
1:10pm 18 30 mph 999mb 65f
1:00pm 22 28 mph 998.6mb 64f
12:50pm 21 28 mph 998.6mb 64f
12:40pm 18 25 mph 999.3mb 64f
12:30pm 22 26 mph 999.3mb 64f
12:20pm 22 28 mph 999.7mb 64f
12:10pm 20 29 mph 1000mb 65f
12:00pm 22 29 mph 1000.3mb 65f
11:50am 21 28 mph 1000.3mb 64f
11:40am 20 28 mph 1000.3mb 63f
11:30am 21 31 mph 1000.3mb 63f
11:20am 17 25 mph 1000.3mb 62f
11:10am 23 32 mph 1001mb 62f
11:00am 20 29 mph 1001mb 61f
10:50am 20 30 mph 1001mb 61f
10:40am 23 32 mph 1001mb 61f
10:30am 20 30 mph 1001mb 60f
10:20am 20 28 mph 1000.7mb 59f
10:10am 21 36 mph 1000.7mb 59f
10:00am 26 32 mph 1001mb 59f
9:50am 25 32 mph 1000.7mb 57f
9:40am 25 34 mph 1000.7mb 55f
9:30am 30 36 mph 1000.7mb 54f
9:20am 25 37 mph 1001mb 54f
9:10am 28 37 mph 1001.4mb 53f
9:00am 23 33 mph 1001.4mb 53f
8:50am 23 34 mph 1001.4mb 53f
8:40am 28 37 mph 1001.4mb 52f
8:30am 29 43 mph 1001.4mb 52f
8:20am 28 43 mph 1001.4mb 51f
8:10am 31 45 mph 1001.7mb 51f
8:00am 30 46 mph 1001.7mb 50f
7:50am 32 44 mph 1001.4mb 50f
7:40am 32 47 mph 1001.4mb 51f
7:30am 26 39 mph 1001.4mb 51f
7:20am 31 41 mph 1001.7mb 50f
7:10am 34 48 mph 1001mb 50f
7:00am 25 39 mph 1002mb 49f
6:50am 17 28 mph 1002.4mb 48f
6:40am 21 36 mph 1002.7mb 48f
6:30am 20 37 mph 1002.7mb 47f
6:20am 18 34 mph 1003mb 48f
6:10am 24 37 mph 1003mb 48f
6:00am 25 36 mph 1003.7mb 48f
5:50am 22 38 mph 1003.4mb 48f
5:40am 25 32 mph 1003.4mb 48f
5:30am 23 30 mph 1003.7mb 48f
5:20am 21 32 mph 1004.1mb 47f
5:10am 22 33 mph 1003.7mb 47f
5:00am 25 34 mph 1004.1mb 46f
4:50am 25 32 mph 1004.4mb 47f
4:40am 29 39 mph 1004.4mb 47f
4:30am 30 40 mph 1004.4mb 46f
4:20am 30 37 mph 1005.1mb 47f
4:10am 30 40 mph 1004.7mb 46f
4:00am 31 38 mph 1005.1mb 46f
3:50am 25 40 mph 1005.1mb 46f
3:40am 32 40 mph 1005.4mb 46f
3:30am 30 40 mph 1006.1mb 45f
3:20am 30 43 mph 1006.4mb 45f
3:10am 30 41 mph 1006.4mb 45f
3:00am 29 41 mph 1007.1mb 45f
2:50am 25 40 mph 1007.1mb 44f
2:40am 29 37 mph 1007.1mb 45f
2:30am 24 36 mph 1007.8mb 45f
2:20am 29 37 mph 1007.8mb 45f
2:10am 31 45 mph 1007.8mb 44f
2:00am 31 41 mph 1008.5mb 45f
1:50am 30 39 mph 1008.5mb 46f
1:40am 26 33 mph 1008.8mb 47f
1:30am 25 45 mph 1009.1mb 47f
1:20am 29 38 mph 1009.5mb 47f
1:10am 29 37 mph 1009.8mb 48f
1:00am 30 36 mph 1009.8mb 50f
12:50am 24 28 mph 1009.8mb 51f
12:40am 22 26 mph 1010.2mb 53f
12:30am 23 28 mph 1010.2mb 54f
12:20am 24 30 mph 1010.5mb 56f
12:10am 22 37 mph 1010.5mb 57f
12:00am 26 34 mph 1010.5mb 60f
Sun 04/19 11:50pm 21 30 mph 1010.5mb 61f
11:40pm 20 25 mph 1010.5mb 61f
11:30pm 15 21 mph 1010.5mb 61f
11:20pm 14 20 mph 1010.5mb 60f
11:10pm 7 11 mph 1010.2mb 53f
11:00pm 5 8 mph 1010.5mb 47f
10:50pm  -  mph 1010.5mb 45f
10:40pm  -  mph 1010.5mb 45f
10:30pm  -  3 mph 1010.8mb 44f
10:20pm 5 7 mph 1010.8mb 44f
10:10pm 6 9 mph 1011.2mb 42f
10:00pm 8 13 mph 1011.2mb 42f
9:50pm 11 14 mph 1011.2mb 42f
9:40pm 11 15 mph 1011.5mb 42f
9:30pm 13 16 mph 1011.5mb 42f
9:20pm 14 17 mph 1011.9mb 42f
9:10pm 15 20 mph 1012.2mb 42f
9:00pm 17 21 mph 1012.5mb 42f
8:50pm 18 21 mph 1012.9mb 42f
8:40pm 18 22 mph 1013.2mb 42f
8:30pm 16 21 mph 1013.5mb 42f
8:20pm 17 21 mph 1013.9mb 42f
8:10pm 15 20 mph 1013.9mb 42f
8:00pm 16 18 mph 1014.2mb 42f
7:50pm 14 17 mph 1014.2mb 42f
7:40pm 14 17 mph 1014.6mb 42f
7:30pm 14 16 mph 1014.9mb 43f
7:20pm 14 16 mph 1014.9mb 43f
7:10pm 13 15 mph 1015.2mb 43f
7:00pm 11 15 mph 1015.6mb 43f
6:50pm 13 16 mph 1015.6mb 43f
6:40pm 13 17 mph 1015.6mb 43f
6:30pm 15 18 mph 1015.9mb 44f
6:20pm 15 18 mph 1015.9mb 44f
6:10pm 15 18 mph 1015.9mb 44f
6:00pm 14 17 mph 1016.3mb 44f
5:50pm 14 17 mph 1016.3mb 44f
5:40pm 14 20 mph 1016.6mb 44f
5:30pm 17 21 mph 1016.3mb 44f
5:20pm 17 20 mph 1016.6mb 44f
5:10pm 16 20 mph 1016.9mb 44f
5:00pm 16 18 mph 1016.9mb 44f
4:50pm 16 22 mph 1017.3mb 44f
4:40pm 17 21 mph 1017.3mb 43f
4:30pm 17 21 mph 1017.6mb 43f
4:20pm 16 20 mph 1017.6mb 43f
4:10pm 15 20 mph 1017.9mb 42f
4:00pm 16 18 mph 1017.6mb 42f
3:50pm 17 20 mph 1017.9mb 41f
3:30pm 20 23 mph 1017.9mb 41f
3:20pm 18 23 mph 1018.3mb 40f
3:10pm 21 24 mph 1018.3mb 40f
3:00pm 21 24 mph 1018.6mb 40f
2:50pm 20 23 mph 1019mb 40f
2:40pm 18 22 mph 1019.3mb 40f
2:30pm 18 24 mph 1019.6mb 40f
2:20pm 20 23 mph 1020mb 40f
2:10pm 21 23 mph 1020.3mb 40f
2:00pm 20 23 mph 1020.7mb 40f
1:50pm 20 22 mph 1021mb 40f
1:40pm 20 24 mph 1021.3mb 39f
1:30pm 21 26 mph 1021.3mb 39f
1:20pm 22 26 mph 1021.3mb 39f
1:10pm 23 26 mph 1021.7mb 39f
1:00pm 24 29 mph 1021.7mb 39f
12:50pm 24 28 mph 1021.7mb 39f
12:40pm 24 28 mph 1022mb 39f
12:30pm 22 26 mph 1022.4mb 39f
12:20pm 18 25 mph 1022.7mb 39f
12:10pm 21 24 mph 1023mb 38f
12:00pm 22 26 mph 1023.7mb 38f
11:50am 22 25 mph 1023.7mb 38f
11:40am 22 26 mph 1024mb 38f
11:30am 23 26 mph 1023.7mb 38f
11:20am 23 25 mph 1024mb 38f
11:10am 22 24 mph 1024.4mb 38f
11:00am 22 26 mph 1024.4mb 38f
10:50am 21 26 mph 1024.4mb 37f
10:40am 22 26 mph 1024.4mb 38f
10:30am 20 24 mph 1024.7mb 38f
10:10am 21 24 mph 1025.1mb 37f
10:00am 22 25 mph 1025.1mb 37f
9:50am 21 23 mph 1025.4mb 37f
9:40am 17 22 mph 1025.4mb 37f
9:30am 20 22 mph 1025.4mb 37f
9:20am 20 21 mph 1025.7mb 37f
9:10am 18 22 mph 1025.7mb 37f
9:00am 18 22 mph 1025.4mb 38f
8:50am 22 23 mph 1025.4mb 37f
8:40am 17 22 mph 1025.7mb 38f
8:30am 17 22 mph 1025.7mb 38f
8:20am 18 22 mph 1025.7mb 38f
8:10am 20 21 mph 1025.7mb 38f
8:00am 17 20 mph 1025.7mb 38f
7:50am 17 18 mph 1025.7mb 38f
7:40am 17 20 mph 1026.1mb 38f
7:30am 18 20 mph 1026.1mb 38f
7:20am 16 20 mph 1026.1mb 38f
7:10am 15 18 mph 1026.1mb 38f
7:00am 15 17 mph 1026.1mb 38f
6:50am 13 17 mph 1026.1mb 38f
6:40am 15 17 mph 1025.7mb 38f
6:30am 15 17 mph 1025.7mb 38f
6:20am 15 17 mph 1025.7mb 38f
6:10am 14 16 mph 1025.7mb 38f
6:00am 15 16 mph 1025.7mb 38f
5:50am 14 17 mph 1025.7mb 38f
5:40am 13 16 mph 1025.7mb 38f
5:30am 13 16 mph 1025.7mb 38f
5:20am 14 17 mph 1025.7mb 38f
5:10am 11 15 mph 1025.7mb 39f
4:50am 15 17 mph 1025.4mb 39f
4:40am 15 18 mph 1025.4mb 39f
4:30am 15 17 mph 1025.4mb 39f
4:20am 15 18 mph 1025.4mb 39f
4:10am 15 18 mph 1025.1mb 40f
4:00am 16 18 mph 1025.1mb 40f
3:50am 17 22 mph 1025.1mb 40f
3:40am 18 23 mph 1024.7mb 40f
3:30am 18 23 mph 1024.7mb 40f
3:20am 20 24 mph 1024.7mb 40f
3:10am 18 24 mph 1024.4mb 40f
3:00am 22 25 mph 1024.4mb 40f
2:50am 20 24 mph 1024.4mb 40f
2:40am 20 23 mph 1024.7mb 41f
2:30am 18 21 mph 1024.7mb 41f
2:20am 16 20 mph 1024.7mb 41f
2:10am 16 18 mph 1024.4mb 41f
2:00am 17 20 mph 1024.4mb 42f
1:50am 14 17 mph 1024.7mb 42f
1:40am 14 17 mph 1024.4mb 43f
1:30am 14 17 mph 1024.7mb 43f
1:20am 14 16 mph 1024.7mb 44f
1:10am 13 16 mph 1024.7mb 44f
1:00am 11 15 mph 1024.4mb 44f
12:50am 11 14 mph 1024.4mb 45f
12:40am 11 14 mph 1024.4mb 46f
12:30am 11 14 mph 1024mb 46f
12:20am 10 11 mph 1024mb 46f
12:10am 9 10 mph 1024mb 46f
12:00am 8 9 mph 1024mb 46f
Sat 04/18 11:50pm 6 7 mph 1023.7mb 46f
11:30pm 7 8 mph 1023.7mb 47f
11:20pm 7 8 mph 1023.7mb 48f
11:10pm 8 9 mph 1023.7mb 48f
11:00pm 7 9 mph 1023.7mb 48f
10:50pm  -  5 mph 1023.7mb 47f
10:40pm  -  mph 1023.7mb 46f
10:30pm  -  mph 1023.7mb 46f
10:20pm  -  mph 1023.4mb 46f
10:10pm  -  mph 1023.4mb 45f
10:00pm  -  2 mph 1023mb 45f
9:50pm 2
mph
1023mb 45f
9:40pm  -  2 mph 1023mb 45f
9:30pm 1 6 mph 1022.7mb 45f
9:20pm 6 8 mph 1022.7mb 45f
9:10pm 7 11 mph 1022.7mb 45f
9:00pm 9 11 mph 1022.4mb 44f
8:50pm 9 13 mph 1022mb 46f
8:40pm 11 14 mph 1022mb 48f
8:30pm 11 15 mph 1021.7mb 50f
8:20pm 13 16 mph 1021.7mb 52f
8:10pm 10 13 mph 1021.3mb 53f
8:00pm 9 11 mph 1021.3mb 53f
7:50pm 9 11 mph 1021.3mb 51f
7:40pm 7 10 mph 1021mb 50f
7:30pm 9 10 mph 1020.7mb 51f
7:20pm 9 10 mph 1020.7mb 54f
7:10pm 9 13 mph 1020.7mb 53f
7:00pm 11 13 mph 1020.7mb 53f
6:50pm 8 10 mph 1020.7mb 49f
6:40pm 8 9 mph 1020.3mb 50f
6:30pm 9 11 mph 1020.3mb 51f
6:10pm 11 13 mph 1020.3mb 53f
6:00pm 10 14 mph 1020.3mb 58f
5:50pm 10 14 mph 1020.3mb 57f
5:40pm 10 13 mph 1020.3mb 53f
5:30pm 10 11 mph 1020mb 52f
5:20pm 10 13 mph 1020mb 53f
5:10pm 8 11 mph 1019.6mb 53f
5:00pm 11 13 mph 1019.6mb 53f
4:50pm 10 13 mph 1019.6mb 54f
4:40pm 11 15 mph 1019.3mb 55f
4:30pm 14 15 mph 1019mb 58f
4:20pm 15 17 mph 1019mb 58f
4:10pm 15 17 mph 1019mb 58f
4:00pm 15 18 mph 1018.6mb 56f
3:50pm 15 17 mph 1018.6mb 56f
3:40pm 15 17 mph 1018.3mb 55f
3:30pm 15 16 mph 1018.3mb 55f
3:20pm 15 17 mph 1018.3mb 55f
3:10pm 15 18 mph 1017.9mb 54f
3:00pm 17 20 mph 1017.6mb 53f
2:50pm 17 20 mph 1017.6mb 54f
2:40pm 16 24 mph 1017.6mb 57f
2:30pm 20 23 mph 1017.6mb 57f
2:20pm 20 23 mph 1017.6mb 57f
2:10pm 21 25 mph 1017.3mb 56f
2:00pm 20 24 mph 1017.3mb 55f
1:50pm 20 26 mph 1017.3mb 56f
1:40pm 20 24 mph 1017.3mb 56f
1:30pm 20 23 mph 1017.3mb 55f
1:20pm 20 23 mph 1016.9mb 52f
1:10pm 20 25 mph 1016.9mb 53f
12:50pm 20 28 mph 1016.6mb 55f
12:40pm 23 29 mph 1016.6mb 56f
12:30pm 24 28 mph 1016.3mb 58f
12:20pm 22 26 mph 1015.9mb 58f
12:10pm 21 24 mph 1015.9mb 58f
12:00pm 20 23 mph 1015.9mb 58f
11:50am 17 28 mph 1015.9mb 59f
11:40am 18 26 mph 1015.9mb 59f
11:30am 23 31 mph 1015.6mb 61f
11:20am 22 28 mph 1015.6mb 60f
11:10am 22 29 mph 1015.6mb 58f
11:00am 24 28 mph 1015.2mb 59f
10:50am 22 26 mph 1015.2mb 59f
10:40am 22 29 mph 1015.2mb 60f
10:30am 22 28 mph 1014.9mb 61f
10:20am 21 25 mph 1014.9mb 59f
10:10am 24 32 mph 1014.6mb 64f
10:00am 20 28 mph 1014.9mb 64f
9:50am 21 25 mph 1014.6mb 64f
9:40am 20 24 mph 1014.2mb 65f
9:30am 17 25 mph 1014.2mb 64f
9:20am 15 24 mph 1014.2mb 64f
9:10am 13 20 mph 1014.2mb 64f
9:00am 13 18 mph 1014.2mb 63f
8:50am 10 15 mph 1014.6mb 62f
8:40am 9 13 mph 1014.9mb 60f
8:30am 8 13 mph 1014.9mb 60f
8:20am 10 13 mph 1014.9mb 59f
8:10am 14 16 mph 1014.9mb 59f
8:00am 10 14 mph 1014.9mb 58f
7:50am 8 10 mph 1014.9mb 58f
7:30am 9 14 mph 1015.2mb 56f
7:20am 10 13 mph 1015.2mb 56f
7:10am 10 11 mph 1015.2mb 55f
7:00am 9 10 mph 1015.2mb 54f
6:50am 8 11 mph 1015.6mb 54f
6:40am 8 10 mph 1015.9mb 53f
6:30am 8 10 mph 1015.9mb 52f
6:20am 8 9 mph 1015.9mb 51f
6:10am 7 11 mph 1015.9mb 51f
6:00am 8 10 mph 1015.9mb 51f
5:50am 9 10 mph 1015.6mb 49f
5:40am 6 7 mph 1015.6mb 50f
5:30am 6
mph
1015.6mb 49f
5:20am 6 7 mph 1015.2mb 50f
5:10am 6 8 mph 1015.2mb 50f
5:00am 6 7 mph 1015.2mb 50f
4:50am 6 8 mph 1015.6mb 50f
4:40am 7 9 mph 1015.6mb 50f
4:30am 7 8 mph 1015.6mb 50f
4:20am 7 9 mph 1015.6mb 51f
4:10am 8 9 mph 1015.6mb 51f
4:00am 8
mph
1015.6mb 51f
3:50am 8
mph
1015.9mb 51f
3:40am 7 8 mph 1015.6mb 51f
3:30am 8 10 mph 1015.9mb 51f
3:20am 8 9 mph 1015.9mb 51f
3:10am 8 9 mph 1015.9mb 51f
3:00am 8 9 mph 1015.6mb 51f
2:50am 8 9 mph 1015.6mb 51f
2:40am 8 11 mph 1015.6mb 51f
2:30am 8 10 mph 1015.9mb 51f
2:10am 10 11 mph 1015.9mb 51f
2:00am 8 10 mph 1015.9mb 52f
1:50am 9 10 mph 1015.9mb 52f
1:40am 8 9 mph 1015.9mb 52f
1:30am 9 10 mph 1015.9mb 52f
1:20am 9 10 mph 1015.9mb 52f
1:10am 8 10 mph 1015.9mb 53f
1:00am 9 11 mph 1015.9mb 53f
12:50am 9 11 mph 1016.3mb 53f
12:40am 8 11 mph 1016.3mb 53f
12:30am 10 13 mph 1016.3mb 54f
12:20am 9 13 mph 1016.3mb 54f
12:10am 9 13 mph 1016.6mb 54f
12:00am 9 11 mph 1016.6mb 54f
Fri 04/17 11:50pm 10 13 mph 1016.6mb 54f
11:40pm 10 14 mph 1016.6mb 55f
11:30pm 9 13 mph 1016.3mb 55f
11:20pm 9 13 mph 1016.3mb 55f
11:10pm 8 11 mph 1016.3mb 55f
11:00pm 9 11 mph 1016.3mb 55f
10:50pm 8 13 mph 1016.3mb 56f
10:40pm 9 14 mph 1016.3mb 56f
10:30pm 10 11 mph 1016.3mb 56f
10:20pm 8 13 mph 1016.3mb 56f
10:10pm 10 14 mph 1016.3mb 56f
10:00pm 11 15 mph 1016.3mb 57f
9:50pm 9 16 mph 1016.3mb 57f
9:40pm 11 14 mph 1016.6mb 57f
9:30pm 10 13 mph 1016.6mb 57f
9:20pm 10 13 mph 1016.3mb 58f
9:10pm 10 15 mph 1016.3mb 58f
8:50pm 9 14 mph 1016.3mb 59f
8:40pm 11 16 mph 1016.3mb 59f
8:30pm 13 18 mph 1016.3mb 60f
8:20pm 14 17 mph 1016.3mb 60f
8:10pm 7 14 mph 1016.3mb 60f
8:00pm 13 23 mph 1016.3mb 61f
7:50pm 11 15 mph 1015.9mb 61f
7:40pm 10 16 mph 1015.9mb 62f
7:30pm 9 14 mph 1015.9mb 62f
7:20pm 10 15 mph 1015.6mb 63f
7:10pm 13 17 mph 1015.2mb 63f
7:00pm 10 15 mph 1015.2mb 64f
6:50pm 10 14 mph 1015.2mb 65f
6:40pm 7 8 mph 1014.9mb 65f
6:30pm 7 10 mph 1014.6mb 65f
6:20pm 7 10 mph 1014.6mb 65f
6:10pm 9 13 mph 1014.6mb 64f
6:00pm 10 13 mph 1014.6mb 64f
5:50pm 13 15 mph 1014.9mb 64f
5:40pm 10 15 mph 1014.9mb 63f
5:30pm 16 18 mph 1014.9mb 65f
5:20pm 14 18 mph 1014.9mb 64f
5:10pm 15 20 mph 1014.9mb 65f
5:00pm 16 20 mph 1014.9mb 64f
4:50pm 15 21 mph 1014.9mb 64f
4:40pm 3 6 mph 1014.9mb 57f
4:30pm  -  5 mph 1014.9mb 57f
4:20pm  -  6 mph 1015.2mb 53f
4:10pm 1 5 mph 1015.2mb 53f
4:00pm  -  3 mph 1015.2mb 53f
3:50pm 2 6 mph 1015.2mb 50f
3:30pm 3 6 mph 1015.2mb 49f
3:20pm 5 8 mph 1015.6mb 48f
3:10pm 6 9 mph 1015.6mb 47f
3:00pm 9 13 mph 1015.6mb 46f
2:50pm 11 14 mph 1015.9mb 46f
2:40pm 10 16 mph 1015.9mb 46f
2:30pm 11 15 mph 1015.9mb 46f